Погода в Большом Колояре

Россия / Пензенская область     53°42′49″N   43°41′58″E
темп.,
°C
ветер,
м/с
пор.,
м/с
влажн.,
%
обл.,
%
осадки,
мм/ч
давл.,
гПа
погр.,
м
12 апреля, пн
пн1200:00+5св51093100 0.4 1031348
03:00+5св51096100 0.9 1032320
06:00+5всв51197100 0.0 1032370
09:00+7всв61092100 0.0 1032420
12:00+12в687893 0.0 1032520
15:00+15вюв576890 0.0 1031606
18:00+13в51080100 0.0 1031291
21:00+10вюв4119199 0.0 1032188
13 апреля, вт
вт1300:00+10вюв4118762 0.0 1031199
03:00+8юв398365 0.0 1032138
06:00+7юв3107981 0.0 1032159
09:00+13ююв510555 0.0 1032397
12:00+17ююв57408 0.0 1031768
15:00+19ююв57355 0.0 10301240
18:00+15юв37515 0.0 1029149
21:00+11юв386367 0.0 1030117
14 апреля, ср
ср1400:00+9юв397018 0.0 1029143
03:00+7юв387487 0.0 1028126
06:00+6юв38735 0.0 1028124
09:00+12юв58510 0.0 1027392
12:00+16юв58371 0.0 1025977
15:00+18ююв57330 0.0 10231296
18:00+15юв37485 0.0 1022154
21:00+10юв36635 0.0 102386
15 апреля, чт
чт1500:00+8юв34725 0.0 102265
03:00+7юв22795 0.0 102225
06:00+6юв33810 0.0 102155
09:00+13юв35590 0.0 1020356
12:00+17ююв34430 0.0 10191221
15:00+18ююв23360 0.0 10181495
18:00+16вюв22474 0.0 101713
21:00+12в335764 0.0 101824
16 апреля, пт
пт1600:00+10в336512 0.0 101730
03:00+9вюв227025 0.0 101720
06:00+9в227599 0.0 101734
09:00+15вюв3458100 0.0 1016319
12:00+19в334396 0.0 10161071
15:00+20вюв223888 0.0 10151998
18:00+14всв366999 0.8 1016136
21:00+13ссв347198 2.6 101758